QZS-1 (QZSS/PRN 183)

Last updated on Oct. 25, 2020, 5:57 a.m. UTC

1 37158U 10045A   20298.43137122 -.00000128  00000-0  00000+0 0  9999
2 37158  41.7376 141.7709 0747647 270.3463 276.7229  1.00283986 37049
UTC
Height (km)
Latitude
Longitude
Inclination
Orbital Period
UTC large
Height (km)
Speed (km/s)
/
Latitude / Longitude
Inclination (degrees)
Orbital Period (minutes)
Azimuth
Elevation
Range (km)
Doppler Factor
iOS Compass Heading
iOS Angle

Next 30 passes for location: Hong Kong

Rise time Rise Azimuth (degrees) Set time Set Azimuth (degrees) Duration Max altitude (degrees)

No matching passes for this satellites